Regional Weather Roundup
Issued by NWS Cleveland, OH

Home | Current Version | Previous Version | Graphics & Text | Print | Product List | Glossary On
Versions: 1 2 3 4 5 6 7 8 9 10 11 12 13 14 15 16 17 18 19 20 21 22 23 24 25 26 27 28 29 30 31 32 33 34 35 36 37 38 39 40 41 42 43 44 45 46 47 48 49 50
000
ASUS41 KCLE 222210
RWRCLE
OHIO REGIONAL WEATHER ROUNDUP
NATIONAL WEATHER SERVICE CLEVELAND, OH
500 PM EST WED NOV 22 2017

NOTE: "FAIR" INDICATES FEW OR NO CLOUDS BELOW 12,000 FEET WITH NO
SIGNIFICANT WEATHER AND/OR OBSTRUCTIONS TO VISIBILITY.

OHZ001>008-015>018-024>027-034-035-043-044-222300-
   NORTHWEST OHIO

CITY           SKY/WX    TMP DP  RH WIND       PRES   REMARKS
DEFIANCE       CLEAR     34  17  50 NW3       30.27S
FINDLAY        CLOUDY    32  18  56 NW3       30.27R
TOLEDO EXPRESS CLEAR     34  19  54 W6        30.27R WCI  29
TOLEDO EXEC    CLEAR     34  19  54 SW5       30.28R WCI  30
LIMA           PTCLDY    32  21  64 NW6       30.26R WCI  26
$$

OHZ009>014-019>023-028>033-038-089-222300-
   NORTHEAST OHIO

CITY           SKY/WX    TMP DP  RH WIND       PRES   REMARKS
CLE-HOPKINS    CLOUDY    33  19  56 W7        30.29R WCI  27
CLE-LAKEFRONT  CLOUDY    34  19  54 W15       30.26R WCI  24
CUY CO. ARPT   CLOUDY    34  23  64 NW14      30.26R WCI  24
LORAIN-ELYRIA  CLOUDY    31  16  54 W7        30.27S WCI  24
ASHTABULA      CLOUDY    32  22  66 W5        30.24R WCI  27
AKRON-CANTON   CLOUDY    32  20  61 NW9       30.24R WCI  24
WOOSTER        CLOUDY    30  20  66 N7        30.25R WCI  23
MANSFIELD      CLOUDY    30  19  63 NW9       30.25R WCI  22
YOUNGSTOWN     CLOUDY    32  20  61 NW7       30.22R WCI  26
$$

OHZ042-051>053-060>062-070>072-077>081-222300-
  SOUTHWEST OHIO

CITY           SKY/WX    TMP DP  RH WIND       PRES   REMARKS
CINC-COVINGTON PTCLDY    37  25  61 NE6       30.26S
CINC-LUNKEN    PTCLDY    36  24  62 N3        30.30R
HAMILTON       PTCLDY    36  25  64 CALM      30.29S
DAYTON         CLOUDY    34  24  67 NW9       30.27S WCI  27
WRIGHT-PAT AFB CLOUDY    35  20  54 NW7       30.27R WCI  29
DAYTON GENERAL CLEAR     35  22  58 NW7       30.26S WCI  29
WILMINGTON     CLEAR     33  24  69 N5        30.25S WCI  29
$$

OHZ036-037-039>041-045>050-054>059-063>069-073>076-082>088-222300-
  CENTRAL AND SOUTHEAST OHIO

CITY           SKY/WX    TMP DP  RH WIND       PRES   REMARKS
COLUMBUS       CLOUDY    33  21  61 NW8       30.27R WCI  26
OSU AIRPORT    CLOUDY    33  22  63 N6        30.26S WCI  28
BOLTON FIELD   MOCLDY    34  21  60 N3        30.26S
RICKENBACK AFB CLOUDY    32  21  64 NW6       30.27S WCI  26
NEWARK         CLOUDY    34  20  56 NW8       30.25R WCI  27
MARION         CLOUDY    32  21  64 NW7       30.26S WCI  26
LANCASTER      CLOUDY    33  22  63 NW5       30.27R WCI  29
ZANESVILLE     CLOUDY    36  21  54 N3        30.25R
NEW PHILLY     NOT AVBL
$$




USA.gov is the U.S. government's official web portal to all federal, state and local government web resources and services.